User: anonymous   Login
Location: Ceske Budejovice
(48.9830°N, 14.4670°E)
Time: 01:04:31
(UTC+02:00)
Language:

DX 1 - Orbit

View from above orbital plane
View from above orbital plane
View from above satellite
View from above satellite

Ground track
Ground track

The orbit data is extracted from the following two-line orbital elements,

1 40071U 14037C   19196.84499848  .00000080  00000-0  17737-4 0  9994
2 40071  98.4295 352.1181 0009350 133.6639 226.5353 14.81276417271276
Epoch (UTC): 15 July 2019 20:16:47
Eccentricity: 0.0009350
inclination: 98.4295°
perigee height: 619 km
apogee height: 632 km
right ascension of ascending node: 352.1181°
argument of perigee: 133.6639°
revolutions per day: 14.81276417
mean anomaly at epoch: 226.5353°
orbit number at epoch: 27127

The dashed part of the orbit path shows where the satellite is in the earth's shadow,  

DLR